DW8750 Weather Reports


Display with metric or nautical units.
time (UTC)temp
F
wind
direction
speed
MPH
gust
MPH
rain 1hr
in
rain 24hr
in
rain mn
in
humidity
%
barometer
mb
20260509123628 73 76 8.0 14.0 0.00 0.00 0.00 61 1016.8
20260509122629 74 80 7.0 14.0 0.00 0.00 0.00 61 1016.8
20260509121628 74 55 7.0 14.0 0.00 0.00 0.00 64 1016.8
20260509120628 74 14 7.0 11.0 0.00 0.00 0.00 66 1016.8
20260509114627 73 355 7.0 12.0 0.00 0.00 0.00 64 1017.0
20260509112628 72 355 6.0 10.0 0.00 0.00 0.00 69 1017.2
20260509110632 72 355 8.0 13.0 0.00 0.00 0.00 70 1017.2
20260509105630 72 350 8.0 13.0 0.00 0.00 0.00 70 1017.3
20260509104627 72 38 7.0 12.0 0.00 0.00 0.00 70 1017.4
20260509103628 72 20 6.0 11.0 0.00 0.00 0.00 70 1017.4
20260509102627 72 355 5.0 11.0 0.00 0.00 0.00 70 1017.7
20260509101629 72 321 5.0 9.0 0.00 0.00 0.00 70 1017.7
20260509100631 71 54 5.0 9.0 0.00 0.00 0.00 71 1017.7
20260509095631 71 332 4.0 9.0 0.00 0.00 0.00 72 1017.8
20260509094629 71 5 4.0 8.0 0.00 0.00 0.00 72 1017.8
20260509093628 71 311 3.0 7.0 0.00 0.00 0.00 72 1017.9
20260509091629 70 330 4.0 9.0 0.00 0.00 0.00 75 1018.0
20260509090627 69 317 4.0 9.0 0.00 0.00 0.00 78 1018.1
20260509085628 68 329 4.0 9.0 0.00 0.00 0.00 77 1018.1
20260509084629 67 329 5.0 9.0 0.00 0.00 0.00 79 1018.1
20260509083627 67 22 4.0 9.0 0.00 0.00 0.00 81 1018.2
20260509082627 67 342 4.0 8.0 0.00 0.00 0.00 81 1018.3
20260509080621 66 355 4.0 10.0 0.00 0.00 0.00 83 1018.3
20260509075621 67 355 5.0 9.0 0.00 0.00 0.00 83 1018.3
20260509074623 67 343 6.0 11.0 0.00 0.00 0.00 84 1018.2
20260509073621 66 320 6.0 10.0 0.00 0.00 0.00 85 1018.1
20260509072619 66 311 7.0 13.0 0.00 0.00 0.00 85 1018.2
20260509070618 66 335 8.0 12.0 0.00 0.00 0.00 85 1018.2
20260509065611 66 328 7.0 12.0 0.00 0.00 0.00 85 1018.2
20260509064610 65 324 6.0 11.0 0.00 0.00 0.00 85 1018.2
20260509062612 65 285 3.0 7.0 0.00 0.00 0.00 85 1018.2
20260509061609 65 263 3.0 6.0 0.00 0.00 0.00 85 1018.0
20260509060608 65 329 4.0 9.0 0.00 0.00 0.00 85 1017.8
20260509055612 65 307 4.0 7.0 0.00 0.00 0.00 85 1017.9
20260509054609 65 283 3.0 8.0 0.00 0.00 0.00 85 1017.8
20260509053609 65 258 1.0 4.0 0.00 0.00 0.00 85 1017.7
20260509052609 65 101 0.0 2.0 0.00 0.00 0.00 85 1017.7
20260509051608 65 108 0.0 2.0 0.00 0.00 0.00 86 1017.6
20260509045611 65 255 1.0 2.0 0.00 0.00 0.00 85 1017.2
20260509044609 65 255 0.0 2.0 0.00 0.00 0.00 85 1017.2
20260509043608 65 255 0.0 2.0 0.00 0.00 0.00 85 1017.1
20260509042607 65 255 1.0 3.0 0.00 0.00 0.00 85 1017.0
20260509035606 65 281 2.0 4.0 0.00 0.00 0.00 85 1016.9
20260509034603 65 238 3.0 5.0 0.00 0.00 0.00 85 1016.8
20260509033603 65 266 2.0 4.0 0.00 0.00 0.00 85 1016.8
20260509032600 64 213 2.0 4.0 0.00 0.00 0.00 85 1016.8
20260509031558 64 229 1.0 4.0 0.00 0.00 0.00 84 1016.6
20260509030557 64 194 2.0 4.0 0.00 0.00 0.00 84 1016.6
20260509025556 64 175 3.0 6.0 0.00 0.00 0.00 83 1016.5
20260509024554 63 237 1.0 4.0 0.00 0.00 0.00 83 1016.5
20260509023554 63 237 2.0 4.0 0.00 0.00 0.00 83 1016.5
20260509021554 63 197 3.0 5.0 0.00 0.00 0.00 82 1016.4
20260509020556 63 207 3.0 6.0 0.00 0.00 0.00 81 1016.4
20260509014558 63 180 0.0 0.0 0.00 0.00 0.00 80 1016.3
20260509013555 63 180 0.0 0.0 0.00 0.00 0.00 79 1016.3
20260509012554 63 180 1.0 3.0 0.00 0.00 0.00 78 1016.2
20260509011556 63 180 1.0 2.0 0.00 0.00 0.00 78 1016.1
20260509010553 64 180 1.0 3.0 0.00 0.00 0.00 77 1016.0
20260509005552 64 180 0.0 0.0 0.00 0.00 0.00 77 1015.9
20260509002554 65 180 0.0 0.0 0.00 0.00 0.00 76 1016.0
20260509001550 65 180 0.0 0.0 0.00 0.00 0.00 76 1016.1
20260509000550 65 180 0.0 0.0 0.00 0.00 0.00 76 1016.1
20260508235552 66 180 0.0 0.0 0.00 0.00 0.00 75 1016.1
20260508233552 66 180 0.0 0.0 0.00 0.00 0.00 74 1016.0
20260508231550 66 180 0.0 1.0 0.00 0.00 0.00 74 1016.2
20260508225547 66 180 0.0 1.0 0.00 0.00 0.00 74 1016.4
20260508224546 66 180 1.0 3.0 0.00 0.00 0.00 74 1016.6
20260508223545 66 180 1.0 3.0 0.00 0.00 0.00 74 1016.5
20260508222543 66 180 1.0 3.0 0.00 0.00 0.00 74 1016.4
20260508221547 66 180 0.0 0.0 0.00 0.00 0.00 74 1016.3
20260508220556 66 180 0.0 0.0 0.00 0.00 0.00 74 1016.3
20260508215540 66 180 0.0 0.0 0.00 0.00 0.00 74 1016.2
20260508214543 66 180 0.0 0.0 0.00 0.00 0.00 73 1016.2
20260508213541 66 180 0.0 3.0 0.00 0.00 0.00 73 1016.2
20260508212538 66 180 1.0 3.0 0.00 0.00 0.00 73 1016.0
20260508211539 66 180 1.0 4.0 0.00 0.00 0.00 72 1016.0
20260508210539 66 180 2.0 4.0 0.00 0.00 0.00 72 1016.2
20260508205541 66 209 2.0 4.0 0.00 0.00 0.00 72 1016.1
20260508202538 66 197 2.0 4.0 0.00 0.00 0.00 73 1016.1
20260508201537 67 211 2.0 4.0 0.00 0.00 0.00 72 1016.0
20260508195537 67 190 1.0 3.0 0.00 0.00 0.00 72 1015.9
20260508194540 67 187 0.0 2.0 0.00 0.00 0.00 71 1015.8
20260508193537 67 187 0.0 2.0 0.00 0.00 0.00 72 1015.7
20260508192535 68 329 0.0 2.0 0.00 0.00 0.00 78 1015.7
20260508190534 68 329 1.0 4.0 0.00 0.00 0.00 75 1015.4
20260508184534 68 342 1.0 4.0 0.00 0.00 0.00 71 1014.9
20260508183536 68 329 2.0 4.0 0.00 0.00 0.00 70 1014.9
20260508182534 68 299 2.0 4.0 0.00 0.00 0.00 70 1014.8
20260508180537 68 297 4.0 7.0 0.00 0.00 0.00 69 1014.6
20260508175534 68 310 4.0 8.0 0.00 0.00 0.00 68 1014.5
20260508174534 69 294 5.0 8.0 0.00 0.00 0.00 68 1014.5
20260508173534 69 303 4.0 8.0 0.00 0.00 0.00 66 1014.3
20260508172534 69 284 5.0 8.0 0.00 0.00 0.00 65 1014.2
20260508171534 69 292 4.0 8.0 0.00 0.00 0.00 63 1014.2
20260508170535 70 288 4.0 7.0 0.00 0.00 0.00 64 1014.1
20260508165536 70 269 4.0 7.0 0.00 0.00 0.00 60 1014.0
20260508164534 70 290 4.0 7.0 0.00 0.00 0.00 59 1013.9
20260508163534 70 347 5.0 8.0 0.00 0.00 0.00 59 1013.8
20260508162536 70 252 4.0 6.0 0.00 0.00 0.00 59 1013.9
20260508161534 70 275 2.0 5.0 0.00 0.00 0.00 60 1013.9
20260508160532 70 355 2.0 6.0 0.00 0.00 0.00 57 1014.0
20260508155534 71 277 5.0 8.0 0.00 0.00 0.00 59 1014.0
20260508152532 71 331 2.0 9.0 0.00 0.00 0.00 62 1014.0
20260508151534 71 347 1.0 4.0 0.00 0.00 0.00 64 1013.9
20260508150531 71 5 3.0 6.0 0.00 0.00 0.00 65 1013.9
20260508145535 71 344 4.0 7.0 0.00 0.00 0.00 64 1013.8
20260508144530 72 288 2.0 9.0 0.00 0.00 0.00 63 1013.8
20260508142528 71 0 4.0 11.0 0.00 0.00 0.00 64 1013.7
20260508140528 73 338 3.0 8.0 0.00 0.00 0.00 65 1013.6
20260508135527 72 325 4.0 11.0 0.00 0.00 0.00 65 1013.5
20260508133528 72 31 5.0 11.0 0.00 0.00 0.00 66 1013.6
20260508131525 73 0 5.0 10.0 0.00 0.00 0.00 64 1013.5
20260508130525 74 285 4.0 8.0 0.00 0.00 0.00 64 1013.3
20260508125525 74 269 3.0 10.0 0.00 0.00 0.00 64 1013.4
20260508124526 73 0 5.0 13.0 0.00 0.00 0.00 64 1013.4